Address 0xce2cc46682e9c6d5f174af598fb4931a9c0be68e 4

 
Txn Hash Method
Block
From
To
Value [Txn Fee]
0x4a77571bc2dd77227264516a316b79e0523b1dfee27420bf61b654bf46e07d51Transfer33897452021-11-27 23:36:1914 mins ago0xecb7d9e8989d29f308d87e7bf44ecb34a4284311 IN 0xce2cc46682e9c6d5f174af598fb4931a9c0be68e0.409242555012678 ETH0.00066455438 ETH
0x8c7b70b941f180ade0fdcb6d64cb8896733adf97da7710d30a08899616eb547dTransfer33881332021-11-27 22:06:251 hr 44 mins ago0x3f2af9def9619e198ce8262b18f21eeae905aa9a IN 0xce2cc46682e9c6d5f174af598fb4931a9c0be68e98.977943866372622 ETH0.000667333997 ETH
0x37fbd9129e6b20ead524b4ae6705be6424e893a84af05f0998c00706b88d9b58Transfer33867002021-11-27 20:38:183 hrs 12 mins ago0xc1597325061d65de14bc71602be288cf624c1701 IN 0xce2cc46682e9c6d5f174af598fb4931a9c0be68e0.079233680108951 ETH0.000663593808 ETH
0x25ff3780b8db7ed0a024273d36970a2412e1283af81d849d20529058be8873a8Transfer33867002021-11-27 20:38:183 hrs 12 mins ago0xdd0b4f4ff6340e9e73c3bb05715d3181615a782f IN 0xce2cc46682e9c6d5f174af598fb4931a9c0be68e0.9977753612732 ETH0.000661271926 ETH
0x3829e637344af6b69879cf1005220ae32cd07989b8f88e3cba8a05b92341daaaTransfer33861662021-11-27 20:07:203 hrs 43 mins ago0x4d4eae4e9fdbd38a93225cd5b163d699510b938e IN 0xce2cc46682e9c6d5f174af598fb4931a9c0be68e0.2441753612732 ETH0.000661271926 ETH
0x462b68284123253d1f445135c59499d2596379932cd44f69437e2df0fcfe0762Transfer33857442021-11-27 19:38:224 hrs 12 mins ago0x1f3db8d4987cf77ea7a763d29d7b13da1daf767e IN 0xce2cc46682e9c6d5f174af598fb4931a9c0be68e0.097728900665468 ETH0.000656198483 ETH
0x543b5ec1910bbef82454de0fbe802e317460d5955ed24a0c6aed7e96789a72feTransfer33831122021-11-27 16:55:006 hrs 56 mins ago0x9f7c49c90ec1176aab195f3461b273f6ce7abf0c IN 0xce2cc46682e9c6d5f174af598fb4931a9c0be68e24.279277802077353 ETH0.000667556935 ETH
0x120f14d6cec2fea61d56c2b8e399717d54284de5cc024f885553709ef1477ff7Transfer33831092021-11-27 16:55:006 hrs 56 mins ago0x90fc3b747c859adfc52303ab294f4e51fd005dfd IN 0xce2cc46682e9c6d5f174af598fb4931a9c0be68e0.005341884441794 ETH0.000663819737 ETH
0x75ef8ff747fa487f50fb37a56aa2da2024ccefeba4dc28f8099bd03d4a0c52d4Transfer33821252021-11-27 15:55:347 hrs 55 mins ago0x90fc3b747c859adfc52303ab294f4e51fd005dfd IN 0xce2cc46682e9c6d5f174af598fb4931a9c0be68e0.866776057243415 ETH0.000674788963 ETH
0x52292944dc91e5eb5ea57b05f0ee41f9f1fdf2f017306a2d4e01947a497ace97Transfer33815502021-11-27 15:25:418 hrs 25 mins ago0x04d28191ec81a8d92586ae5fac4063f5e30b9237 IN 0xce2cc46682e9c6d5f174af598fb4931a9c0be68e0.048586358762671 ETH0.000675737366 ETH
0xecf38656870c4a96652839a57503ded73973ebed075ba92ed2199ff7658993e8Outbound Transfe...33784942021-11-27 12:37:4911 hrs 13 mins ago0xce2cc46682e9c6d5f174af598fb4931a9c0be68eOUT 0x5288c571fd7ad117bea99bf60fe0846c4e84f9330 ETH0.000848145491 ETH
0x91552d949da7c2686fbb6f5f51c45d62a8751a67860215deb4d89111834c04e7Transfer33784492021-11-27 12:34:5211 hrs 16 mins ago0xce2cc46682e9c6d5f174af598fb4931a9c0be68eOUT 0xff970a61a04b1ca14834a43f5de4533ebddb5cc80 ETH0.000756682743 ETH
0x2586d4406da8d837153b13fb0f398da4eebd10f8ef9e10eef04be1cc71f5122dTransfer33769492021-11-27 10:59:1312 hrs 51 mins ago0xa2420f5844232216cbacd3ca652109d4e3d4342e IN 0xce2cc46682e9c6d5f174af598fb4931a9c0be68e10.230142141492132 ETH0.000705498813 ETH
0x0dbe4efde5f30e281c3113842ddbcc19214237fa8fa156f42cf40e095588f29fTransfer33756612021-11-27 9:31:5814 hrs 19 mins ago0xfa20ba5a0f418e25e13d271d9fddff0388c7654a IN 0xce2cc46682e9c6d5f174af598fb4931a9c0be68e0.43913486869224 ETH0.000715678379 ETH
0x7c659a4431d61286fd1f14a55baf75cad8e814e63d820317f8803a6e3d77a75dTransfer33754032021-11-27 9:16:0614 hrs 35 mins ago0xea7e35ecfe1f81fa1702c552ba7f82fefc187e5e IN 0xce2cc46682e9c6d5f174af598fb4931a9c0be68e0.017020704366938 ETH0.000715176501 ETH
0xb2e558e10ded0888e95b8ab2f68093e045448a7221c9b644e6f51bd1706690b0Transfer33754012021-11-27 9:16:0614 hrs 35 mins ago0xf2981fc77e24dc453e19d839f60115e772dec8e6 IN 0xce2cc46682e9c6d5f174af598fb4931a9c0be68e0.24137949343032 ETH0.000715678379 ETH
0x65fc3f546586560d283c5916bc1fccbf9d494bc7c5e2e3f8fea118de8b1951fcTransfer33739572021-11-27 7:48:0016 hrs 3 mins ago0x817635910cee77c1efee06a196943d5c73322b2a IN 0xce2cc46682e9c6d5f174af598fb4931a9c0be68e0.896989344446988 ETH0.000727174601 ETH
0x590b5ec3a7ef4fb0f33b40e7f958ae9269160c096843c6e9272e4a31253b2255Transfer33737132021-11-27 7:32:2316 hrs 18 mins ago0x1961468ae8de4e8b596e8c6913a540c5e6ac0a3d IN 0xce2cc46682e9c6d5f174af598fb4931a9c0be68e0.899180298212327 ETH0.000728704421 ETH
0xdae70d8c0af1260bd1fd8b75a855ba869f8d072ef2bd86ab9f78975eeffabfd4Transfer33726952021-11-27 6:04:4317 hrs 46 mins ago0x9f7c49c90ec1176aab195f3461b273f6ce7abf0c IN 0xce2cc46682e9c6d5f174af598fb4931a9c0be68e20.149283394442653 ETH0.000722197922 ETH
0x5c85493be863db400e78b9b5aba9940ed8365b3d2b75f5a14db759b9bdf22c5eTransfer33705992021-11-27 3:20:1520 hrs 30 mins ago0x44514fc9cdc8422a4cbb42fcd52f5a9310b3a9f6 IN 0xce2cc46682e9c6d5f174af598fb4931a9c0be68e28.459251866486045 ETH0.000711057301 ETH
0x3146c40f522802e206a9ed69f70287d082fb124ebe8f71ddcdf6876b1f71f707Transfer33704162021-11-27 3:05:0420 hrs 46 mins ago0x997a1890f962c031da0478c6328921f97101caff IN 0xce2cc46682e9c6d5f174af598fb4931a9c0be68e0.001415995035066 ETH0.000707574165 ETH
0x33f223a2da05b39f3c8074864d3c4ea2633124724fadc7c9b4b071552512b221Transfer33704122021-11-27 3:04:2420 hrs 46 mins ago0x4bf5cc7eb6ed442fba7966989c0352486a6b4f74 IN 0xce2cc46682e9c6d5f174af598fb4931a9c0be68e0.9977753612732 ETH0.000705583802 ETH
0x81f73ae117bd7ed707aad03c77e337e9db3c14e2d955534fabd6d87fb553589cTransfer33653082021-11-26 21:21:101 day 2 hrs ago0x6c4c71a97d5b7de4130dc699238a50f51a5756b5 IN 0xce2cc46682e9c6d5f174af598fb4931a9c0be68e0.1826753612732 ETH0.00071525774 ETH
0xec5f9d8e3d1a7713465952b3bddfbe6fff79646ca01380217d2dc9aac602d37cTransfer33643642021-11-26 20:20:451 day 3 hrs ago0xe0bb79216fb9203b8a0259cd08914ea719e67baa IN 0xce2cc46682e9c6d5f174af598fb4931a9c0be68e0.0527753612732 ETH0.000714516178 ETH
0x6df75d708b7ce6882a2bcd711d748c2c000430daa4091f89652d2abfee4b566bTransfer33624782021-11-26 18:21:421 day 5 hrs ago0x559abed068c59004e805dbfdc92bbd523bca85b2 IN 0xce2cc46682e9c6d5f174af598fb4931a9c0be68e0.009986894233802 ETH0.000711108983 ETH
[ Download CSV Export 
Parent Txn Hash Block From To Value
Loading

Contract Name:
0 ETH

Compiler Version
0

Optimization Enabled:
0 ETH

Other Settings:
-NA-
Block Transaction Gas Used Reward
Age Block Fee Address BC Fee Address Voting Power Jailed Incoming
Block Uncle Number Difficulty Gas Used Reward
Loading
Loading
Make sure to use the "Vote Down" button for any spammy posts, and the "Vote Up" for interesting conversations.